User: anonymous   Login
Location: Unspecified
(52.4292°N, 19.3359°E)
Time: 21:33:16
(UTC+02:00)
Language:

A-11 Canister half - Orbit

View from above orbital plane
View from above orbital plane
View from above satellite
View from above satellite

Ground track
Ground track

The orbit data is extracted from the following two-line orbital elements,

1 00053U 60009E   24147.71546314 -.00000027  00000-0  57619-3 0  9993
2 00053  47.2747 140.2891 0099130  13.2389 347.0969 12.17334505843884
Epoch (UTC): 26 May 2024 17:10:16
Eccentricity: 0.0099130
inclination: 47.2747°
perigee height: 1525 km
apogee height: 1683 km
right ascension of ascending node: 140.2891°
argument of perigee: 13.2389°
revolutions per day: 12.17334505
mean anomaly at epoch: 347.0969°
orbit number at epoch: 84388

The dashed part of the orbit path shows where the satellite is in the earth's shadow,  

DLR